TimeMST,TemperatureF,Dew PointF,Humidity,Sea Level PressureIn,VisibilityMPH,Wind Direction,Wind SpeedMPH,Gust SpeedMPH,PrecipitationIn,Events,Conditions,WindDirDegrees,DateUTC
12:53 AM,12.9,1.0,59,30.29,10.0,Calm,Calm,-,N/A,,Clear,0,2013-02-28 07:53:00
1:53 AM,12.0,1.9,64,30.27,10.0,Calm,Calm,-,N/A,,Clear,0,2013-02-28 08:53:00
2:53 AM,10.0,1.9,70,30.29,10.0,Calm,Calm,-,N/A,,Clear,0,2013-02-28 09:53:00
3:53 AM,9.0,3.0,77,30.31,10.0,Calm,Calm,-,N/A,,Clear,0,2013-02-28 10:53:00
4:53 AM,14.0,3.0,62,30.29,10.0,North,6.9,-,N/A,,Clear,350,2013-02-28 11:53:00
5:53 AM,15.1,3.0,59,30.33,10.0,Calm,Calm,-,N/A,,Clear,0,2013-02-28 12:53:00
6:53 AM,10.9,3.0,70,30.38,10.0,Calm,Calm,-,N/A,,Clear,0,2013-02-28 13:53:00
7:53 AM,15.1,5.0,64,30.40,10.0,Calm,Calm,-,N/A,,Clear,0,2013-02-28 14:53:00
8:53 AM,28.0,1.9,33,30.36,10.0,North,5.8,-,N/A,,Clear,360,2013-02-28 15:53:00
9:53 AM,33.1,1.9,27,30.36,10.0,Variable,4.6,-,N/A,,Clear,0,2013-02-28 16:53:00
10:53 AM,37.9,-0.9,19,30.34,10.0,North,8.1,-,N/A,,Clear,10,2013-02-28 17:53:00
11:53 AM,42.1,-2.9,15,30.33,10.0,Calm,Calm,-,N/A,,Clear,0,2013-02-28 18:53:00
12:53 PM,48.0,-8.0,10,30.28,10.0,NNW,11.5,16.1,N/A,,Clear,330,2013-02-28 19:53:00
1:53 PM,46.9,-9.0,9,30.27,10.0,NNW,5.8,-,N/A,,Clear,340,2013-02-28 20:53:00
2:53 PM,46.9,-5.1,11,30.29,10.0,North,13.8,21.9,N/A,,Clear,360,2013-02-28 21:53:00
3:53 PM,45.0,-6.0,12,30.32,10.0,North,15.0,-,N/A,,Clear,360,2013-02-28 22:53:00
4:53 PM,43.0,-8.0,12,30.32,10.0,North,9.2,18.4,N/A,,Clear,350,2013-02-28 23:53:00
5:53 PM,39.0,-4.0,16,30.35,10.0,NNW,9.2,-,N/A,,Clear,340,2013-03-01 00:53:00
6:53 PM,30.9,-2.0,24,30.40,10.0,Calm,Calm,-,N/A,,Clear,0,2013-03-01 01:53:00
7:53 PM,27.0,-0.9,30,30.41,10.0,Calm,Calm,-,N/A,,Clear,0,2013-03-01 02:53:00
8:53 PM,27.0,-0.0,31,30.37,10.0,North,-9999.0,-,N/A,,Clear,0,2013-03-01 03:53:00
9:53 PM,27.0,1.0,33,30.37,10.0,North,-9999.0,-,N/A,,Clear,0,2013-03-01 04:53:00
10:53 PM,17.1,1.0,50,30.39,10.0,SW,3.5,-,N/A,,Clear,220,2013-03-01 05:53:00
11:53 PM,19.0,3.0,50,30.38,10.0,Calm,Calm,-,N/A,,Clear,0,2013-03-01 06:53:00